Regional Weather Roundup
Issued by NWS

Home | Current Version | Previous Version | Graphics & Text | Print | Product List | Glossary On
Versions: 1 2 3 4 5 6 7 8 9 10 11 12 13 14 15 16 17 18 19 20 21 22 23 24 25 26 27 28 29 30 31 32 33 34 35 36 37 38 39 40 41 42 43 44 45 46 47 48 49 50
568
ASUS43 KOAX 090602
RWRNE

WEATHER ROUNDUP FOR NEBRASKA
NATIONAL WEATHER SERVICE OMAHA NE
1200 AM CST TUE FEB 09 2016

NOTES: SATELLITE DATA IS BEING USED TO AUGMENT CLOUD COVER ABOVE
       12000 FEET.
       "FAIR" INDICATES FEW OR NO CLOUDS BELOW 12,000 FEET WITH NO
       SIGNIFICANT WEATHER AND/OR OBSTRUCTIONS TO VISIBILITY.

  * THESE STATIONS DO NOT REPORT WEATHER SUCH AS RAIN...SNOW OR FOG.

NEZ001>004-019>022-054>056-090700-
NEBRASKA PANHANDLE

CITY           SKY/WX    TMP DP  RH WIND       PRES   REMARKS
SCOTTSBLUFF    CLEAR     31  26  82 NW9       30.26S WCI  23
6HR MIN TEMP:  30; 6HR MAX TEMP:  40;

ALLIANCE       PTCLDY    36  27  69 NW18      30.19F WCI  26
6HR MIN TEMP:  27; 6HR MAX TEMP:  36;

CHADRON        MOCLDY    37  28  70 NW10      30.22F WCI  30
6HR MIN TEMP:  31; 6HR MAX TEMP:  38;

SIDNEY         CLEAR     32  25  75 NW14      30.24F WCI  22
6HR MIN TEMP:  32; 6HR MAX TEMP:  39;

$$

NEZ057>060-069>072-079>082-090700-
SOUTHWEST NEBRASKA

CITY           SKY/WX    TMP DP  RH WIND       PRES   REMARKS
NORTH PLATTE   CLOUDY    28  19  69 NW8       30.20F WCI  20
6HR MIN TEMP:  26; 6HR MAX TEMP:  34;

IMPERIAL       CLOUDY    31  24  75 NW7       30.24S WCI  24
6HR MIN TEMP:  26; 6HR MAX TEMP:  34;

MCCOOK         CLOUDY    31  21  66 W13       30.23F WCI  21
6HR MIN TEMP:  30; 6HR MAX TEMP:  33;

$$

NEZ005>010-023>029-035>040-094-090700-
NORTH CENTRAL NEBRASKA

CITY           SKY/WX    TMP DP  RH WIND       PRES   REMARKS
VALENTINE      CLOUDY    31  17  56 NW13      30.19F WCI  21
6HR MIN TEMP:  25; 6HR MAX TEMP:  32;

BROKEN BOW     MOCLDY    29  17  61 NW16      30.16F WCI  17
6HR MIN TEMP:  26; 6HR MAX TEMP:  33;

ORD            CLEAR     26  17  68 NW12      30.15S WCI  16
6HR MIN TEMP:  26; 6HR MAX TEMP:  32;

$$

NEZ041-046>049-061>064-073>077-083>087-090700-
SOUTH CENTRAL NEBRASKA

CITY           SKY/WX    TMP DP  RH WIND       PRES   REMARKS
GRAND ISLAND   CLEAR     20  12  71 W10       30.16S WCI   9
6HR MIN TEMP:  18; 6HR MAX TEMP:  32;

HASTINGS       CLEAR     22  13  68 NW10      30.15S WCI  11
6HR MIN TEMP:  21; 6HR MAX TEMP:  32;

$$

NEZ011>018-030>034-042>045-090700-
NORTHEAST NEBRASKA

CITY           SKY/WX    TMP DP  RH WIND       PRES   REMARKS
NORFOLK        CLOUDY    26  15  63 N18       30.11S WCI  13
6HR MIN TEMP:  26; 6HR MAX TEMP:  33;

COLUMBUS *     CLEAR     27  12  54 NW13G18   30.12S WCI  16
TEKAMAH        CLEAR     24  11  57 N21G29    30.10F WCI   9
6HR MIN TEMP:  24; 6HR MAX TEMP:  32;

$$

NEZ050>053-065>068-078-088>093-090700-
SOUTHEAST NEBRASKA

CITY           SKY/WX    TMP DP  RH WIND       PRES   REMARKS
LINCOLN        CLOUDY    30  20  66 NW15      30.12S WCI  19
6HR MIN TEMP:  30; 6HR MAX TEMP:  33;

OMAHA EPPLEY   CLEAR     23  15  71 N15       30.08F WCI  10
6HR MIN TEMP:  23; 6HR MAX TEMP:  27;

FALLS CITY     PTCLDY    30  18  60 NW16G24   30.08S WCI  19
6HR MIN TEMP:  26; 6HR MAX TEMP:  31;

NEBRASKA CITY  CLEAR     28  17  62 N15G23    30.07F WCI  16
$$

NEZ044-045-051>053-067-090700-
OMAHA AREA

CITY           SKY/WX    TMP DP  RH WIND       PRES   REMARKS
OMAHA EPPLEY   CLEAR     23  15  71 N15       30.08F WCI  10
6HR MIN TEMP:  23; 6HR MAX TEMP:  27;

OFFUTT AFB     CLEAR     26  14  62 N13G25    30.08S WCI  14
WAHOO          MOCLDY    26  17  70 N16G22    30.11S WCI  14
$$




USA.gov is the U.S. government's official web portal to all federal, state and local government web resources and services.